Time,TemperatureF,DewpointF,PressureIn,WindDirection,WindDirectionDegrees,WindSpeedMPH,WindSpeedGustMPH,Humidity,HourlyPrecipIn,Conditions,Clouds,dailyrainin,SolarRadiationWatts/m^2,SoftwareType,DateUTC
2013-01-26 00:10:00,26.4,22.0,30.32,East,96,4.0,-999.0,82,-99.99,,,0.00,0,weatherlink.com 1.10,2013-01-26 06:10:00,
2013-01-26 00:25:00,25.8,21.0,30.33,East,97,6.0,-999.0,83,-99.99,,,0.00,0,weatherlink.com 1.10,2013-01-26 06:25:00,
2013-01-26 00:40:00,25.6,21.0,30.33,ESE,119,4.0,-999.0,84,-99.99,,,0.00,0,weatherlink.com 1.10,2013-01-26 06:40:00,
2013-01-26 00:55:00,25.1,21.0,30.32,SE,130,5.0,-999.0,84,-99.99,,,0.00,0,weatherlink.com 1.10,2013-01-26 06:55:00,
2013-01-26 01:10:00,24.9,21.0,30.32,SE,143,2.0,-999.0,85,-99.99,,,0.00,0,weatherlink.com 1.10,2013-01-26 07:10:00,
2013-01-26 01:25:00,25.5,22.0,30.32,East,92,5.0,-999.0,86,-99.99,,,0.00,0,weatherlink.com 1.10,2013-01-26 07:25:00,
2013-01-26 01:40:00,25.3,21.0,30.32,East,88,4.0,-999.0,85,-99.99,,,0.00,0,weatherlink.com 1.10,2013-01-26 07:40:00,
2013-01-26 01:56:00,24.9,21.0,30.32,East,87,6.0,-999.0,85,-99.99,,,0.00,0,weatherlink.com 1.10,2013-01-26 07:56:00,
2013-01-26 02:10:00,24.5,21.0,30.32,East,87,4.0,-999.0,85,-99.99,,,0.00,0,weatherlink.com 1.10,2013-01-26 08:10:00,
2013-01-26 02:26:00,24.2,21.0,30.32,East,85,5.0,-999.0,86,-99.99,,,0.00,0,weatherlink.com 1.10,2013-01-26 08:26:00,
2013-01-26 02:40:00,24.0,20.0,30.32,East,94,5.0,-999.0,86,-99.99,,,0.00,0,weatherlink.com 1.10,2013-01-26 08:40:00,
2013-01-26 02:54:00,23.8,21.0,30.32,East,89,4.0,-999.0,87,-99.99,,,0.00,0,weatherlink.com 1.10,2013-01-26 08:54:00,
2013-01-26 03:11:00,23.8,21.0,30.31,East,94,6.0,-999.0,87,-99.99,,,0.00,0,weatherlink.com 1.10,2013-01-26 09:11:00,
2013-01-26 03:25:00,24.1,21.0,30.31,ESE,105,8.0,-999.0,88,-99.99,,,0.00,0,weatherlink.com 1.10,2013-01-26 09:25:00,
2013-01-26 03:40:00,24.5,22.0,30.31,East,101,7.0,-999.0,88,-99.99,,,0.00,0,weatherlink.com 1.10,2013-01-26 09:40:00,
2013-01-26 03:55:00,24.5,21.0,30.30,ESE,105,9.0,-999.0,87,-99.99,,,0.00,0,weatherlink.com 1.10,2013-01-26 09:55:00,
2013-01-26 04:10:00,24.6,21.0,30.29,ESE,109,7.0,-999.0,87,-99.99,,,0.00,0,weatherlink.com 1.10,2013-01-26 10:10:00,
2013-01-26 04:25:00,24.4,21.0,30.29,East,98,6.0,-999.0,87,-99.99,,,0.00,0,weatherlink.com 1.10,2013-01-26 10:25:00,
2013-01-26 04:40:00,24.0,21.0,30.29,ESE,110,8.0,-999.0,87,-99.99,,,0.00,0,weatherlink.com 1.10,2013-01-26 10:40:00,
2013-01-26 04:55:00,23.6,20.0,30.29,ESE,123,6.0,-999.0,87,-99.99,,,0.00,0,weatherlink.com 1.10,2013-01-26 10:55:00,
2013-01-26 05:10:00,23.1,20.0,30.29,ESE,117,6.0,-999.0,87,-99.99,,,0.00,0,weatherlink.com 1.10,2013-01-26 11:10:00,
2013-01-26 05:26:00,22.9,20.0,30.28,ESE,104,7.0,-999.0,87,-99.99,,,0.00,0,weatherlink.com 1.10,2013-01-26 11:26:00,
2013-01-26 05:40:00,22.6,20.0,30.29,ESE,103,8.0,-999.0,88,-99.99,,,0.00,0,weatherlink.com 1.10,2013-01-26 11:40:00,
2013-01-26 05:56:00,22.6,20.0,30.28,ESE,106,8.0,-999.0,88,-99.99,,,0.00,0,weatherlink.com 1.10,2013-01-26 11:56:00,
2013-01-26 06:10:00,22.7,20.0,30.28,ESE,119,9.0,-999.0,88,-99.99,,,0.00,0,weatherlink.com 1.10,2013-01-26 12:10:00,
2013-01-26 06:25:00,22.4,19.0,30.28,ESE,123,7.0,-999.0,87,-99.99,,,0.00,0,weatherlink.com 1.10,2013-01-26 12:25:00,
2013-01-26 06:41:00,22.4,19.0,30.28,ESE,120,7.0,-999.0,88,-99.99,,,0.00,0,weatherlink.com 1.10,2013-01-26 12:41:00,
2013-01-26 06:56:00,22.1,19.0,30.28,SE,125,8.0,-999.0,87,-99.99,,,0.00,0,weatherlink.com 1.10,2013-01-26 12:56:00,
2013-01-26 07:11:00,21.7,18.0,30.28,SE,133,9.0,-999.0,87,-99.99,,,0.00,0,weatherlink.com 1.10,2013-01-26 13:11:00,
2013-01-26 07:26:00,21.9,19.0,30.28,SE,128,7.0,-999.0,88,-99.99,,,0.00,0,weatherlink.com 1.10,2013-01-26 13:26:00,
2013-01-26 07:41:00,21.8,19.0,30.28,ESE,121,9.0,-999.0,88,-99.99,,,0.00,5,weatherlink.com 1.10,2013-01-26 13:41:00,
2013-01-26 07:56:00,21.9,19.0,30.28,SE,126,9.0,-999.0,88,-99.99,,,0.00,25,weatherlink.com 1.10,2013-01-26 13:56:00,
2013-01-26 08:11:00,22.3,19.0,30.28,SE,129,9.0,-999.0,88,-99.99,,,0.00,60,weatherlink.com 1.10,2013-01-26 14:11:00,
2013-01-26 08:26:00,23.1,20.0,30.28,SE,128,9.0,-999.0,88,-99.99,,,0.00,100,weatherlink.com 1.10,2013-01-26 14:26:00,
2013-01-26 08:41:00,24.1,21.0,30.28,SE,126,11.0,-999.0,88,-99.99,,,0.00,128,weatherlink.com 1.10,2013-01-26 14:41:00,
2013-01-26 08:56:00,25.2,22.0,30.27,SE,126,9.0,-999.0,88,-99.99,,,0.00,195,weatherlink.com 1.10,2013-01-26 14:56:00,
2013-01-26 09:11:00,27.0,24.0,30.28,SE,134,9.0,-999.0,87,-99.99,,,0.00,237,weatherlink.com 1.10,2013-01-26 15:11:00,
2013-01-26 09:26:00,28.3,24.0,30.27,SE,124,14.0,-999.0,85,-99.99,,,0.00,146,weatherlink.com 1.10,2013-01-26 15:26:00,
2013-01-26 09:41:00,29.6,25.0,30.27,SE,132,11.0,-999.0,84,-99.99,,,0.00,269,weatherlink.com 1.10,2013-01-26 15:41:00,
2013-01-26 09:56:00,31.1,26.0,30.27,SE,128,9.0,-999.0,82,-99.99,,,0.00,320,weatherlink.com 1.10,2013-01-26 15:56:00,
2013-01-26 10:11:00,31.9,27.0,30.28,SE,127,8.0,-999.0,81,-99.99,,,0.00,371,weatherlink.com 1.10,2013-01-26 16:11:00,
2013-01-26 10:26:00,33.0,28.0,30.28,SE,131,8.0,-999.0,81,-99.99,,,0.00,367,weatherlink.com 1.10,2013-01-26 16:26:00,
2013-01-26 10:41:00,35.3,29.0,30.28,SSE,151,11.0,-999.0,79,-99.99,,,0.00,287,weatherlink.com 1.10,2013-01-26 16:41:00,
2013-01-26 10:56:00,37.7,30.0,30.28,SE,139,10.0,-999.0,73,-99.99,,,0.00,392,weatherlink.com 1.10,2013-01-26 16:56:00,
2013-01-26 11:11:00,40.0,31.0,30.26,SE,138,12.0,-999.0,70,-99.99,,,0.00,452,weatherlink.com 1.10,2013-01-26 17:11:00,
2013-01-26 11:26:00,41.9,31.0,30.25,SSE,156,14.0,-999.0,66,-99.99,,,0.00,468,weatherlink.com 1.10,2013-01-26 17:26:00,
2013-01-26 11:41:00,43.4,32.0,30.24,SE,129,9.0,-999.0,64,-99.99,,,0.00,482,weatherlink.com 1.10,2013-01-26 17:41:00,
2013-01-26 11:56:00,45.2,33.0,30.23,SSE,156,12.0,-999.0,62,-99.99,,,0.00,485,weatherlink.com 1.10,2013-01-26 17:56:00,
2013-01-26 12:11:00,48.5,32.0,30.22,SSE,153,13.0,-999.0,54,-99.99,,,0.00,469,weatherlink.com 1.10,2013-01-26 18:11:00,
2013-01-26 12:26:00,51.8,30.0,30.21,South,180,19.0,-999.0,43,-99.99,,,0.00,443,weatherlink.com 1.10,2013-01-26 18:26:00,
2013-01-26 12:41:00,52.8,30.0,30.21,SSE,148,13.0,-999.0,42,-99.99,,,0.00,49,weatherlink.com 1.10,2013-01-26 18:41:00,
2013-01-26 12:56:00,54.1,29.0,30.19,South,176,19.0,-999.0,39,-99.99,,,0.00,403,weatherlink.com 1.10,2013-01-26 18:56:00,
2013-01-26 13:11:00,54.4,28.0,30.18,SSW,198,15.0,-999.0,37,-99.99,,,0.00,348,weatherlink.com 1.10,2013-01-26 19:11:00,
2013-01-26 13:26:00,55.1,28.0,30.17,SSW,192,20.0,-999.0,36,-99.99,,,0.00,304,weatherlink.com 1.10,2013-01-26 19:26:00,
2013-01-26 13:41:00,55.3,29.0,30.16,South,182,16.0,-999.0,37,-99.99,,,0.00,323,weatherlink.com 1.10,2013-01-26 19:41:00,
2013-01-26 13:57:00,55.4,30.0,30.16,South,185,19.0,-999.0,38,-99.99,,,0.00,327,weatherlink.com 1.10,2013-01-26 19:57:00,
2013-01-26 14:12:00,56.0,30.0,30.15,South,175,20.0,-999.0,37,-99.99,,,0.00,408,weatherlink.com 1.10,2013-01-26 20:12:00,
2013-01-26 14:27:00,56.1,29.0,30.14,South,184,17.0,-999.0,36,-99.99,,,0.00,399,weatherlink.com 1.10,2013-01-26 20:27:00,
2013-01-26 14:42:00,56.1,30.0,30.14,South,182,18.0,-999.0,37,-99.99,,,0.00,341,weatherlink.com 1.10,2013-01-26 20:42:00,
2013-01-26 14:57:00,55.7,30.0,30.13,South,178,19.0,-999.0,38,-99.99,,,0.00,237,weatherlink.com 1.10,2013-01-26 20:57:00,
2013-01-26 15:12:00,54.8,29.0,30.13,South,180,15.0,-999.0,38,-99.99,,,0.00,128,weatherlink.com 1.10,2013-01-26 21:12:00,
2013-01-26 15:27:00,55.2,30.0,30.12,South,171,18.0,-999.0,38,-99.99,,,0.00,134,weatherlink.com 1.10,2013-01-26 21:27:00,
2013-01-26 15:42:00,55.6,29.0,30.11,South,178,16.0,-999.0,36,-99.99,,,0.00,77,weatherlink.com 1.10,2013-01-26 21:42:00,
2013-01-26 15:57:00,55.2,29.0,30.11,South,183,21.0,-999.0,37,-99.99,,,0.00,79,weatherlink.com 1.10,2013-01-26 21:57:00,
2013-01-26 16:12:00,54.9,30.0,30.11,SSW,199,20.0,-999.0,38,-99.99,,,0.00,88,weatherlink.com 1.10,2013-01-26 22:12:00,
2013-01-26 16:26:00,54.1,29.0,30.11,SSE,166,14.0,-999.0,39,-99.99,,,0.00,67,weatherlink.com 1.10,2013-01-26 22:26:00,
2013-01-26 16:41:00,51.9,29.0,30.10,SSE,158,10.0,-999.0,41,-99.99,,,0.00,49,weatherlink.com 1.10,2013-01-26 22:41:00,
2013-01-26 16:56:00,50.2,28.0,30.09,SSE,162,9.0,-999.0,42,-99.99,,,0.00,40,weatherlink.com 1.10,2013-01-26 22:56:00,
2013-01-26 17:12:00,48.5,28.0,30.09,SSE,165,9.0,-999.0,45,-99.99,,,0.00,25,weatherlink.com 1.10,2013-01-26 23:12:00,
2013-01-26 17:27:00,46.6,27.0,30.09,SSE,155,9.0,-999.0,47,-99.99,,,0.00,7,weatherlink.com 1.10,2013-01-26 23:27:00,
2013-01-26 17:42:00,44.9,27.0,30.09,SSE,159,7.0,-999.0,49,-99.99,,,0.00,0,weatherlink.com 1.10,2013-01-26 23:42:00,
2013-01-26 17:57:00,44.1,26.0,30.08,SSE,148,9.0,-999.0,50,-99.99,,,0.00,0,weatherlink.com 1.10,2013-01-26 23:57:00,
2013-01-26 18:12:00,43.3,26.0,30.08,SE,146,10.0,-999.0,50,-99.99,,,0.00,0,weatherlink.com 1.10,2013-01-27 00:12:00,
2013-01-26 18:27:00,42.2,26.0,30.09,SE,135,10.0,-999.0,52,-99.99,,,0.00,0,weatherlink.com 1.10,2013-01-27 00:27:00,
2013-01-26 18:42:00,40.9,26.0,30.09,SSE,152,8.0,-999.0,55,-99.99,,,0.00,0,weatherlink.com 1.10,2013-01-27 00:42:00,
2013-01-26 18:57:00,40.4,26.0,30.09,SSE,148,8.0,-999.0,56,-99.99,,,0.00,0,weatherlink.com 1.10,2013-01-27 00:57:00,
2013-01-26 19:12:00,40.0,26.0,30.09,SE,138,8.0,-999.0,57,-99.99,,,0.00,0,weatherlink.com 1.10,2013-01-27 01:12:00,
2013-01-26 19:27:00,40.1,25.0,30.09,SE,143,9.0,-999.0,56,-99.99,,,0.00,0,weatherlink.com 1.10,2013-01-27 01:27:00,
2013-01-26 19:42:00,40.0,25.0,30.09,SE,138,8.0,-999.0,56,-99.99,,,0.00,0,weatherlink.com 1.10,2013-01-27 01:42:00,
2013-01-26 19:57:00,39.2,25.0,30.09,SE,140,10.0,-999.0,58,-99.99,,,0.00,0,weatherlink.com 1.10,2013-01-27 01:57:00,
2013-01-26 20:12:00,38.7,25.0,30.09,SSE,148,7.0,-999.0,59,-99.99,,,0.00,0,weatherlink.com 1.10,2013-01-27 02:12:00,
2013-01-26 20:27:00,38.4,25.0,30.08,SE,139,9.0,-999.0,60,-99.99,,,0.00,0,weatherlink.com 1.10,2013-01-27 02:27:00,
2013-01-26 20:43:00,38.1,25.0,30.08,SE,141,8.0,-999.0,60,-99.99,,,0.00,0,weatherlink.com 1.10,2013-01-27 02:43:00,
2013-01-26 20:58:00,37.8,25.0,30.07,SE,133,12.0,-999.0,60,-99.99,,,0.00,0,weatherlink.com 1.10,2013-01-27 02:58:00,
2013-01-26 21:13:00,37.1,25.0,30.07,SE,137,7.0,-999.0,62,-99.99,,,0.00,0,weatherlink.com 1.10,2013-01-27 03:13:00,
2013-01-26 21:28:00,36.2,25.0,30.07,SE,134,9.0,-999.0,63,-99.99,,,0.00,0,weatherlink.com 1.10,2013-01-27 03:28:00,
2013-01-26 21:43:00,35.7,25.0,30.07,SE,144,8.0,-999.0,65,-99.99,,,0.00,0,weatherlink.com 1.10,2013-01-27 03:43:00,
2013-01-26 21:58:00,35.3,25.0,30.07,SE,133,7.0,-999.0,66,-99.99,,,0.00,0,weatherlink.com 1.10,2013-01-27 03:58:00,
2013-01-26 22:13:00,35.4,25.0,30.06,SE,139,10.0,-999.0,67,-99.99,,,0.00,0,weatherlink.com 1.10,2013-01-27 04:13:00,
2013-01-26 22:28:00,36.6,26.0,30.06,SE,131,11.0,-999.0,65,-99.99,,,0.00,0,weatherlink.com 1.10,2013-01-27 04:28:00,
2013-01-26 22:43:00,37.3,26.0,30.06,ESE,120,8.0,-999.0,64,-99.99,,,0.00,0,weatherlink.com 1.10,2013-01-27 04:43:00,
2013-01-26 22:58:00,37.8,27.0,30.05,SE,136,10.0,-999.0,64,-99.99,,,0.00,0,weatherlink.com 1.10,2013-01-27 04:58:00,
2013-01-26 23:13:00,38.3,27.0,30.05,SE,140,8.0,-999.0,64,-99.99,,,0.00,0,weatherlink.com 1.10,2013-01-27 05:13:00,
2013-01-26 23:28:00,38.2,27.0,30.04,SE,138,9.0,-999.0,64,-99.99,,,0.00,0,weatherlink.com 1.10,2013-01-27 05:28:00,
2013-01-26 23:43:00,38.2,27.0,30.04,SE,131,11.0,-999.0,65,-99.99,,,0.00,0,weatherlink.com 1.10,2013-01-27 05:43:00,
2013-01-26 23:59:00,38.4,27.0,30.03,SE,137,10.0,-999.0,64,-99.99,,,0.00,0,weatherlink.com 1.10,2013-01-27 05:59:00,